THOR ABLESTAR DEB, 134

Orbit data source: Space-Track

THOR ABLESTAR DEB, 134 is space debris in LEO originally from a launch on Thu, 29 Jun 1961 UTC launched from the Air Force Eastern Test Range (AFETR). Debris objects in space refer to the collection of defunct objects orbiting the Earth. Examples of debris include non-operational satellites, rocket bodies, and fragments generated from explosions, collisions, or faulty payload assembly.

Loading next visibility...
THOR ABLESTAR DEB details
Identifier
134, 1961-015U
Orbit
LEO
Last TLE update13 hours ago
Origin
Flag of USUSAF SSD (US)
ManufacturerUnknown
MissionSpacecraft
Bus & MotorUnknown
MassUnknown
Launch date (UTC)
1961-06-29 (64 years ago)
Launch vehicleUnknown
Launch site
Air Force Eastern Test Range (AFETR)
Object type
Payload
Rocket body
Debris
Shape & HBRUnknown
Radar Cross Section1.600 m², Large (>1 m²)

Expand to show TLE details & history

TLE from 13 hours ago
0 THOR ABLESTAR DEB
1 00134U 61015U   25014.62997244  .00000188  00000-0  18274-3 0  9998
2 00134  66.8785 243.3173 0084473 209.6174 150.0112 13.97510286233233
Epoch: 2025-01-14T15:07Z
Definitive object data (Epoch: 2025-01-14T15:07:09.618Z)
Latitude-0.00001°
Longitude-97.80669°
Altitude957.92 km
Speed7.346 km/s
True Right ascension16h 13m 16s
True Declination0° 00' 00"
Sunlit
Object was in daylight at TLE epoch
Visualization TLE readout
Latitude-54.78977°
Longitude117.8457°
Altitude871.223 km
Speed7.442 km/s
Apparent Right ascension13h 04m 54s
Apparent Declination-78° 17' 25"
Sunlit
Object is in daylight
Visualization observer readout
Local Sidereal Time04:56:55
Azimuth165.836° S
Elevation-45.299°
Doppler factor1
Orbital elements
Apogee altitude962.296 km
Perigee altitude839.321 km
Semi-major axis7,278.946 km
Eccentricity0.0084473
Inclination66.8785°
RAAN243.3173°
Arg. of periapsis209.6174°
True anomaly150.49064°
Mean anomaly150.0112°
Eccentric anomaly150.25136°
Mean motion3.49495 °/min
BSTAR0.00018274
Orbital period103.01 mins
Loading maneuver chart data...

THOR ABLESTAR DEB Visibility forecast

Observer location: undefined°, undefined

Span
Click to sort rows by Start time (UTC) header in descending order
Start Az.
Max El. time (UTC)
Max El. Az.
Max El.
End time (UTC)
End Az.
8 mins2025-01-15 15:16:53.752Z148.447° SSE2025-01-15 15:20:53.752Z106.747° ESE19.608°2025-01-15 15:24:53.752Z63.292° ENE
10 mins2025-01-15 17:01:53.752Z223.468° SW2025-01-15 17:06:53.752Z326.083° NNW41.622°2025-01-15 17:11:53.752Z22.152° NNE
4 mins2025-01-15 18:51:53.752Z304.811° NW2025-01-15 18:53:53.752Z325.609° NNW13.745°2025-01-15 18:55:53.752Z345.794° N
7 mins2025-01-16 00:17:53.752Z3.288° NNE2025-01-16 00:20:53.752Z37.761° NE20.004°2025-01-16 00:24:53.752Z86.847° E
9 mins2025-01-16 02:03:53.752Z323.482° NNW2025-01-16 02:07:53.752Z242.656° WSW43.211°2025-01-16 02:12:53.752Z163.228° S
|